INTELSAT 14 (IS-14)

Last updated on Tue Jul 01 2025 00:02:45 GMT+0000 (Coordinated Universal Time)

1 36097U 09064A 25181.48755940 -.00000274 00000+0 00000+0 0 9995 2 36097 0.0226 58.8984 0002463 51.3294 299.0945 1.00271571 57079
UTC large
Height (km)
Speed (km/s)
/
Latitude / Longitude
Inclination (degrees)
Orbital Period (minutes)
Azimuth
Elevation
Range (km)
Doppler Factor

Next 0 passes for location: London (51.5072 / 0.1276)

Sorry there are no passes over London.